Lancaster, OH

4:00 AM EDT on August 30, 2016 (GMT -0400)
Fairfield County

Weather History for KLHQ - December, 2012

Change the Weather History Date:

Tuesday, December 4, 2012

  Actual Average Record
Temperature  
Mean Temperature 52 °F -  
Max Temperature 63 °F 43 °F 78 °F (1982)
Min Temperature 39 °F 24 °F -3 °F (1966)
Degree Days  
Heating Degree Days 12    
Growing Degree Days 2 (Base 50)    
Moisture  
Dew Point 49 °F    
Average Humidity 83    
Maximum Humidity 100    
Minimum Humidity 70    
Precipitation  
Precipitation 0.52 in - - ()
Sea Level Pressure  
Sea Level Pressure 30.09 in    
Wind  
Wind Speed 10 mph (WSW)    
Max Wind Speed 20 mph    
Max Gust Speed 30 mph    
Visibility 8 miles    
Events Rain    
Averages and records for this station are not official NWS values.
T = Trace of Precipitation, MM = Missing Value Source: NWS Daily Summary

Daily Weather History Graph

Daily Weather History Graph

Search for Another Location

Airport or City:

Trip Planner

Search our weather history database for the weather conditions in past years. The results will help you decide how hot, cold, wet, or windy it might be!

Date:

Astronomy

Dec. 04, 2012 Rise Set
Actual Time 7:35 AM EST 5:06 PM EST
Civil Twilight 7:05 AM EST 5:36 PM EST
Nautical Twilight 6:32 AM EST 6:09 PM EST
Astronomical Twilight 5:59 AM EST 6:42 PM EST
Moon 10:51 PM EST (12/4) 11:30 AM EST (12/4)
Length of Visible Light 10h 30m
Length of Day
9h 30m
Waning Gibbous, 69% of the Moon is Illuminated
Dec 4
Waning Gibbous
Dec 6
Last Quarter
Dec 13
New
Dec 20
First Quarter
Dec 28
Full

Hourly Weather History & Observations

Time (EST) Temp. Windchill Dew Point Humidity Pressure Visibility Wind Dir Wind Speed Gust Speed Precip Events Conditions
1:53 AM 57.0 °F - 50.0 °F 77% 30.12 in 10.0 mi SSW 6.9 mph - 0.01 in   Clear
2:53 AM 57.0 °F - 48.9 °F 74% 30.12 in 10.0 mi SSW 8.1 mph - N/A   Partly Cloudy
3:53 AM 57.0 °F - 48.9 °F 74% 30.12 in 10.0 mi SSW 8.1 mph - N/A   Mostly Cloudy
4:53 AM 57.0 °F - 48.0 °F 72% 30.10 in 10.0 mi SSW 8.1 mph - N/A   Scattered Clouds
5:53 AM 55.9 °F - 48.0 °F 75% 30.10 in 10.0 mi SSW 8.1 mph - N/A   Clear
6:53 AM 57.0 °F - 48.0 °F 72% 30.10 in 10.0 mi South 8.1 mph - N/A   Overcast
7:53 AM 57.0 °F - 48.9 °F 74% 30.11 in 10.0 mi South 6.9 mph - N/A   Overcast
8:53 AM 57.9 °F - 48.9 °F 72% 30.10 in 10.0 mi SSW 8.1 mph - N/A   Overcast
9:17 AM 57.2 °F - 50.0 °F 77% 30.11 in 10.0 mi SSW 6.9 mph - N/A   Overcast
9:29 AM 57.2 °F - 51.8 °F 82% 30.11 in 6.0 mi SSW 9.2 mph - 0.02 in Rain Light Rain
9:53 AM 59.0 °F - 51.1 °F 75% 30.10 in 10.0 mi SSW 10.4 mph - 0.02 in   Overcast
10:53 AM 63.0 °F - 53.1 °F 70% 30.10 in 10.0 mi SSW 18.4 mph 25.3 mph N/A   Overcast
11:53 AM 60.1 °F - 53.1 °F 78% 30.08 in 10.0 mi SW 11.5 mph 19.6 mph N/A   Overcast
12:08 PM 60.8 °F - 53.6 °F 77% 30.07 in 10.0 mi SW 11.5 mph 19.6 mph N/A   Overcast
12:53 PM 61.0 °F - 55.0 °F 81% 30.04 in 10.0 mi SW 12.7 mph 20.7 mph 0.00 in   Overcast
1:26 PM 60.8 °F - 55.4 °F 82% 30.04 in 10.0 mi SW 11.5 mph 20.7 mph N/A   Overcast
1:53 PM 61.0 °F - 55.9 °F 83% 30.02 in 10.0 mi SSW 11.5 mph 23.0 mph N/A   Overcast
2:16 PM 62.6 °F - 55.4 °F 77% 30.01 in 10.0 mi SSW 12.7 mph 21.9 mph N/A   Overcast
2:36 PM 60.8 °F - 55.4 °F 82% 30.02 in 10.0 mi SW 13.8 mph 23.0 mph N/A   Overcast
2:53 PM 61.0 °F - 55.9 °F 83% 30.01 in 10.0 mi SW 11.5 mph 18.4 mph N/A   Overcast
3:53 PM 61.0 °F - 55.9 °F 83% 30.01 in 10.0 mi SSW 9.2 mph - N/A   Overcast
4:53 PM 62.1 °F - 55.9 °F 80% 30.01 in 10.0 mi SW 13.8 mph 19.6 mph N/A   Overcast
5:49 PM 53.6 °F - 51.8 °F 94% 30.05 in 2.0 mi NNW 13.8 mph 29.9 mph 0.11 in Rain Heavy Rain
5:51 PM 53.6 °F - 51.8 °F 94% 30.06 in 1.8 mi NNW 16.1 mph 29.9 mph 0.12 in Rain Heavy Rain
5:53 PM 53.1 °F - 51.1 °F 93% 30.06 in 1.5 mi NW 18.4 mph 29.9 mph 0.13 in Rain Heavy Rain
5:58 PM 53.6 °F - 51.8 °F 94% 30.06 in 2.0 mi NNW 13.8 mph 27.6 mph 0.03 in Rain Heavy Rain
6:01 PM 51.8 °F - 51.8 °F 100% 30.06 in 3.0 mi NNW 16.1 mph 27.6 mph 0.03 in Rain Heavy Rain
6:39 PM 48.2 °F - 44.6 °F 87% 30.09 in 5.0 mi NNW 19.6 mph 25.3 mph 0.09 in Rain Rain
6:53 PM 46.9 °F - 43.0 °F 86% 30.10 in 7.0 mi NNW 15.0 mph 21.9 mph 0.10 in Rain Light Rain
7:09 PM 46.4 °F 39.5 °F 41.0 °F 81% 30.13 in 3.0 mi North 17.3 mph 28.8 mph 0.06 in Rain Heavy Rain
7:23 PM 44.6 °F 39.2 °F 41.0 °F 87% 30.13 in 2.5 mi North 10.4 mph 20.7 mph 0.13 in Rain Heavy Rain
7:32 PM 44.6 °F 40.7 °F 41.0 °F 87% 30.14 in 3.0 mi North 6.9 mph - 0.17 in Rain Heavy Rain
7:53 PM 44.1 °F 41.5 °F 41.0 °F 89% 30.16 in 5.0 mi NNW 4.6 mph - 0.21 in Rain Rain
8:53 PM 44.1 °F 42.5 °F 41.0 °F 89% 30.17 in 8.0 mi WSW 3.5 mph - 0.04 in Rain Light Rain
9:53 PM 43.0 °F - 39.9 °F 89% 30.17 in 10.0 mi Calm Calm - 0.01 in   Mostly Cloudy
10:53 PM 42.1 °F - 39.9 °F 92% 30.18 in 10.0 mi Calm Calm - N/A   Clear
11:53 PM 39.9 °F - 37.9 °F 93% 30.19 in 10.0 mi Calm Calm - N/A   Clear